Temperature
3 3 3 3 2 2 2 2 2 1 1 2 2 2 2 2 2 2 2 2 2 3 3 3 3 2 2 2 2 2 2 2 2 2 2 1 2 2
3 3 2 2 2 2 2 2 2 1 1 1 2 2 2 2 2 1 2 2 2 2 2 2 2 2 2 2 2 2 2 1 1 1 1 1 1 1
2 2 2 2 2 2 2 1 1 1 1 1 1 1 1 1 1 1 1 1 1 1 1 2 2 2 1 1 1 1 1 1 1 1 1 0 0 1
2 2 2 1 1 1 1 1 1 1 1 1 1 1 1 1 1 1 1 1 1 1 1 1 1 1 1 1 1 1 1 0 0 0 -0 0 0 0
1 1 1 1 1 1 1 1 1 1 0 0 0 0 0 0 0 0 0 0 0 0 0 1 1 1 1 0 0 0 -0 -0 -0 -0 -0 -0 -0 -0
1 1 1 1 0 0 0 0 0 -0 -0 -0 -0 -0 -0 -0 -0 -0 0 -0 -0 -0 -0 0 0 0 0 -0 -0 -1 -1 -1 -1 -1 -1 -1 -1 -1
0 0 0 0 0 -0 -0 -0 -0 -0 -0 -1 -1 -1 -1 -1 -1 -1 -1 -1 -1 -1 -0 -0 -0 -0 -0 -1 -1 -1 -1 -1 -1 -1 -1 -1 -1 -1
-0 -0 -0 -0 -0 -0 -0 -1 -1 -1 -1 -1 -1 -1 -1 -1 -1 -1 -1 -2 -1 -1 -1 -1 -1 -1 -1 -1 -1 -1 -1 -2 -2 -2 -2 -1 -1 -1
-1 -1 -1 -1 -1 -1 -1 -1 -1 -1 -1 -2 -2 -2 -2 -1 -2 -2 -2 -2 -2 -2 -2 -1 -1 -1 -1 -2 -2 -2 -2 -2 -2 -2 -2 -2 -2 -2
-1 -1 -1 -1 -1 -1 -1 -1 -1 -2 -2 -2 -2 -2 -2 -2 -2 -2 -2 -2 -2 -2 -2 -2 -2 -2 -2 -2 -2 -2 -2 -2 -2 -2 -2 -2 -2 -2
-1 -1 -1 -1 -1 -2 -2 -2 -2 -2 -2 -2 -2 -2 -2 -2 -2 -2 -2 -3 -3 -3 -3 -3 -3 -2 -2 -2 -2 -3 -3 -3 -3 -3 -3 -3 -2 -2
-2 -2 -2 -2 -2 -2 -2 -2 -2 -2 -2 -2 -2 -3 -3 -3 -3 -3 -3 -3 -3 -3 -3 -3 -3 -3 -3 -3 -3 -3 -3 -3 -3 -3 -3 -3 -3 -3
-2 -2 -2 -2 -2 -3 -3 -3 -3 -3 -3 -3 -3 -3 -3 -3 -3 -3 -3 -4 -4 -4 -4 -4 -4 -4 -4 -4 -3 -3 -3 -3 -3 -3 -3 -3 -3 -3
-2 -3 -3 -3 -3 -3 -3 -3 -3 -3 -3 -3 -3 -3 -3 -3 -3 -4 -4 -4 -4 -4 -4 -4 -4 -4 -4 -4 -4 -3 -3 -3 -3 -3 -3 -3 -3 -4
-3 -3 -3 -3 -3 -3 -3 -4 -4 -4 -4 -4 -4 -4 -4 -4 -4 -4 -4 -4 -4 -4 -4 -4 -4 -4 -5 -5 -5 -4 -4 -4 -4 -4 -4 -4 -4 -4
-3 -3 -3 -3 -3 -4 -4 -4 -4 -4 -4 -4 -4 -4 -4 -4 -4 -4 -4 -4 -4 -4 -4 -4 -4 -5 -5 -5 -5 -4 -4 -4 -4 -4 -4 -4 -4 -4
-4 -4 -4 -4 -4 -4 -4 -4 -4 -4 -4 -4 -5 -5 -5 -5 -5 -5 -5 -5 -5 -5 -4 -5 -5 -5 -5 -5 -5 -5 -5 -5 -5 -5 -4 -4 -4 -4
-4 -4 -4 -4 -4 -4 -4 -4 -5 -5 -5 -5 -5 -5 -5 -5 -5 -5 -5 -5 -5 -5 -5 -5 -5 -5 -5 -5 -5 -5 -5 -5 -5 -5 -5 -5 -4 -4
-4 -4 -4 -4 -5 -5 -5 -5 -5 -5 -5 -5 -5 -5 -5 -5 -5 -5 -5 -5 -5 -5 -5 -5 -5 -5 -5 -5 -5 -5 -5 -5 -5 -5 -5 -5 -5 -5
-5 -5 -5 -5 -5 -5 -5 -5 -5 -6 -6 -6 -6 -6 -6 -6 -6 -6 -6 -6 -6 -5 -5 -5 -5 -6 -6 -6 -6 -5 -5 -5 -5 -5 -5 -5 -5 -5
-5 -5 -5 -5 -5 -5 -6 -6 -6 -6 -6 -6 -6 -6 -6 -6 -6 -6 -6 -6 -6 -6 -6 -6 -6 -6 -6 -6 -6 -5 -5 -5 -5 -5 -5 -5 -5 -5
-5 -5 -5 -6 -6 -6 -6 -6 -6 -6 -6 -6 -6 -6 -6 -6 -6 -6 -6 -6 -6 -6 -6 -6 -6 -6 -6 -6 -6 -6 -5 -5 -5 -5 -5 -5 -6 -6
-5 -5 -6 -6 -6 -6 -6 -6 -6 -6 -6 -6 -6 -6 -6 -6 -6 -6 -6 -6 -6 -6 -6 -6 -6 -6 -6 -6 -6 -6 -6 -5 -5 -5 -5 -5 -5 -6
Wind_Speed
4 4 3 3 2 3 3 3 3 4 4 3 2 2 2 3 4 4 5 8 10 11 11 12 11 11 10 10 10 11 11 11 12 12 13 14 15 15
3 3 4 3 3 3 3 4 4 4 4 3 3 3 3 3 6 5 6 9 10 11 11 11 11 11 10 10 10 10 10 11 11 12 13 14 15 15
2 3 4 3 3 3 3 3 4 4 6 5 3 2 2 3 4 5 6 6 8 10 11 10 10 10 10 10 9 9 10 11 12 13 13 14 14 15
3 3 4 3 3 3 3 3 4 4 5 6 4 3 3 3 3 4 5 6 6 9 10 10 10 10 10 9 9 9 9 10 11 12 13 14 14 14
4 4 4 3 3 3 3 3 3 3 4 4 5 3 3 2 2 3 4 4 6 7 8 9 10 9 9 9 9 8 9 10 11 12 13 13 14 14
3 4 4 4 5 4 4 4 3 3 3 4 4 4 3 2 2 3 3 3 4 5 7 8 8 9 8 9 8 8 8 9 11 12 13 13 12 13
2 3 3 4 6 5 4 3 3 3 3 3 4 4 3 2 3 2 3 4 4 3 4 5 5 5 6 8 8 8 8 9 10 11 11 12 12 11
2 3 3 3 4 5 6 6 5 5 5 4 4 5 4 4 3 3 3 3 4 2 2 4 3 4 5 6 8 8 9 9 10 10 11 11 11 10
2 2 2 2 3 2 4 5 5 6 7 6 6 6 5 4 3 4 3 4 4 3 3 5 3 4 6 7 8 8 9 10 10 10 10 10 10 10
3 3 3 3 3 3 3 3 3 3 4 4 5 5 5 4 4 4 4 4 3 3 2 4 4 4 5 6 7 7 8 9 9 9 10 10 10 10
2 2 2 3 5 5 3 3 3 3 4 5 5 5 6 6 4 2 2 3 4 3 1 2 3 4 4 4 5 7 7 9 10 10 9 9 9 9
2 2 4 4 6 5 3 3 4 3 2 2 3 4 3 4 4 2 3 3 3 3 2 1 2 2 3 3 3 5 6 8 9 10 10 9 9 7
2 2 2 5 6 5 4 3 4 3 2 2 2 2 2 1 2 2 2 3 3 4 2 1 2 1 2 4 3 3 4 5 6 7 8 9 9 7
2 2 3 5 5 5 3 3 5 3 1 1 2 2 2 2 2 2 3 3 4 5 5 3 2 2 3 4 4 3 4 5 4 4 5 8 9 9
2 3 4 4 4 3 3 4 3 1 1 2 2 2 2 2 2 2 2 2 3 4 4 4 3 3 3 4 4 3 3 4 4 3 4 5 5 5
1 2 3 3 3 3 3 2 1 1 1 2 2 2 2 2 2 2 2 2 2 3 3 3 4 3 4 5 5 5 4 3 3 4 4 5 5 5
1 0 0 1 1 1 1 1 1 1 1 1 2 2 2 2 2 2 2 2 2 3 3 2 3 3 4 4 4 4 4 4 3 3 4 5 4 5
1 1 1 1 1 2 2 2 1 2 2 2 2 3 3 2 3 2 2 2 2 3 3 2 2 2 1 2 4 4 3 3 3 3 3 4 5 5
1 1 1 1 2 2 2 2 2 2 2 2 2 3 2 2 2 2 2 2 2 2 3 2 1 1 2 4 3 2 3 3 4 4 3 3 5 5
1 1 2 2 2 2 2 2 2 2 2 2 2 3 3 3 2 3 3 3 2 2 3 2 2 2 3 3 3 3 4 3 3 4 4 4 4 6
1 2 2 2 2 3 3 3 3 3 3 3 3 3 3 3 3 3 3 3 3 2 3 3 3 4 2 1 2 3 3 5 4 4 4 4 4 4
2 2 2 3 3 3 3 3 3 3 3 3 3 3 3 3 3 3 3 2 2 3 3 3 2 1 1 1 3 4 4 5 6 6 5 4 2 3
3 3 3 3 3 3 3 3 4 3 3 3 3 3 3 3 3 2 2 2 2 2 2 2 2 1 1 2 2 3 4 5 4 4 4 6 6 7
Wind_Direction
213 212 215 221 220 223 224 223 228 264 274 257 266 278 295 287 291 300 303 306 310 310 310 310 308 302 300 300 301 303 307 309 311 312 311 313 315 315
215 215 226 225 227 227 224 231 229 235 261 261 250 261 288 293 296 297 297 304 306 307 308 307 307 302 299 299 299 302 305 307 309 310 311 312 313 315
228 227 241 233 228 233 231 234 236 230 253 272 261 267 266 281 305 301 299 298 296 302 306 308 309 309 302 299 298 300 302 305 307 308 310 311 311 312
229 227 245 246 242 241 235 242 242 235 238 263 275 268 260 273 288 297 307 302 296 301 306 309 312 311 304 298 297 301 304 306 307 308 308 310 310 311
230 230 240 236 248 252 247 249 250 249 236 248 269 267 265 284 289 293 300 303 303 303 307 310 314 316 313 307 299 302 306 308 308 308 308 310 310 310
239 238 240 234 238 246 252 248 245 242 238 241 261 268 268 280 273 286 299 299 297 307 309 307 308 316 318 316 310 307 307 308 307 307 309 309 309 309
248 253 252 252 253 254 252 244 235 240 242 249 259 265 263 267 267 265 279 297 292 296 304 307 309 312 314 311 311 310 313 314 312 312 314 313 310 310
248 264 265 268 278 283 278 273 261 244 241 247 254 255 256 251 255 263 270 295 301 305 313 301 305 296 304 306 307 311 313 314 315 317 320 319 314 312
236 255 277 279 287 270 287 295 289 277 255 244 249 253 251 242 242 257 258 265 270 282 301 295 298 292 301 303 306 310 316 318 320 321 323 324 324 318
236 237 249 262 261 257 259 277 271 270 266 252 244 253 253 245 232 239 246 265 270 273 264 284 298 294 303 305 303 311 318 321 325 327 330 330 327 324
251 247 253 260 271 274 261 265 273 271 276 264 260 264 270 270 254 245 247 270 286 286 254 265 293 301 300 295 303 313 321 323 325 326 327 329 330 329
272 265 269 274 279 281 252 245 262 269 263 279 286 291 293 283 275 247 232 249 268 280 265 254 288 317 316 295 300 310 315 318 324 326 327 328 330 337
270 275 277 287 287 290 285 253 259 268 248 244 263 281 295 298 297 277 244 238 250 260 259 257 276 276 278 298 301 299 312 317 320 323 326 328 330 332
256 266 271 288 292 297 300 284 285 287 250 252 276 279 277 281 282 283 266 255 248 252 258 246 248 261 282 291 295 308 317 317 320 320 327 328 332 329
257 273 286 296 308 309 300 297 298 281 255 261 271 276 267 264 279 294 289 287 289 277 262 248 242 252 258 271 282 292 308 310 315 321 323 325 324 328
305 301 311 322 325 313 310 309 295 269 263 260 274 275 274 268 265 265 274 291 303 300 298 274 257 245 256 264 271 282 286 283 304 316 315 315 323 329
284 271 336 321 323 316 309 300 291 295 291 273 270 277 276 274 278 277 270 276 274 287 300 307 305 274 252 254 273 275 280 283 284 301 312 314 312 319
319 280 283 284 286 294 295 294 284 280 275 273 272 272 275 275 284 288 275 265 272 278 283 292 314 322 311 276 244 264 281 283 296 300 298 304 306 312
289 270 270 275 282 282 277 271 271 275 270 266 271 271 274 274 277 279 276 273 274 280 282 281 288 298 308 306 300 255 265 294 305 306 301 296 295 302
274 265 274 278 278 279 277 273 271 276 273 270 270 269 264 268 273 275 274 270 273 285 290 283 264 256 255 273 288 295 293 280 289 299 306 304 297 302
276 274 274 271 272 273 273 272 270 272 273 271 269 270 264 264 266 268 272 273 273 278 283 286 284 290 275 279 291 296 302 306 292 284 298 306 311 318
266 273 273 269 268 270 269 271 271 271 270 267 266 268 268 267 266 265 267 271 273 274 281 289 304 307 269 250 272 288 305 319 328 323 308 289 287 300
262 265 266 267 268 272 271 268 267 265 263 260 261 264 267 270 268 264 263 258 267 277 289 304 318 307 269 259 277 293 302 314 324 335 330 329 319 310
Height
1488 1488 1488 1489 1490 1491 1492 1493 1493 1490 1488 1488 1489 1489 1489 1488 1487 1486 1485 1484 1483 1482 1481 1479 1478 1477 1476 1475 1473 1472 1471 1470 1469 1467 1466 1465 1463 1462
1484 1484 1485 1485 1486 1487 1487 1488 1488 1488 1485 1484 1484 1485 1484 1484 1483 1482 1481 1479 1478 1477 1476 1475 1473 1472 1471 1470 1469 1467 1466 1465 1464 1463 1461 1460 1458 1457
1480 1480 1481 1481 1481 1482 1482 1483 1483 1483 1481 1480 1480 1480 1480 1479 1479 1478 1476 1475 1474 1473 1471 1470 1469 1467 1466 1465 1464 1462 1461 1460 1459 1458 1456 1455 1453 1452
1476 1477 1477 1477 1477 1478 1478 1478 1478 1478 1477 1475 1475 1476 1475 1475 1474 1473 1472 1470 1469 1468 1467 1466 1464 1463 1462 1460 1459 1457 1456 1455 1454 1453 1451 1450 1448 1447
1473 1473 1474 1474 1474 1474 1474 1473 1473 1473 1473 1472 1471 1471 1471 1471 1470 1469 1468 1466 1465 1464 1463 1461 1460 1458 1457 1456 1454 1453 1451 1450 1449 1448 1446 1445 1444 1442
1469 1470 1470 1470 1470 1470 1470 1469 1469 1469 1469 1468 1467 1467 1467 1466 1466 1464 1463 1462 1461 1460 1458 1457 1456 1454 1453 1451 1450 1448 1447 1445 1444 1443 1441 1440 1439 1438
1466 1466 1466 1466 1466 1466 1466 1465 1465 1465 1464 1464 1463 1463 1462 1462 1461 1461 1459 1458 1457 1456 1454 1453 1452 1450 1448 1447 1445 1443 1442 1441 1440 1438 1437 1436 1434 1433
1461 1462 1462 1462 1462 1462 1462 1462 1461 1461 1460 1460 1459 1459 1458 1458 1458 1457 1456 1454 1453 1453 1451 1449 1448 1446 1444 1443 1441 1439 1438 1437 1435 1434 1432 1431 1430 1429
1458 1458 1458 1458 1458 1458 1458 1457 1457 1457 1457 1457 1456 1455 1455 1454 1454 1453 1452 1451 1449 1448 1447 1444 1444 1442 1441 1439 1438 1436 1434 1433 1431 1430 1429 1427 1426 1425
1455 1455 1454 1454 1454 1454 1454 1453 1453 1453 1453 1452 1452 1451 1451 1451 1450 1449 1448 1447 1446 1445 1444 1441 1439 1438 1437 1435 1434 1433 1431 1429 1428 1426 1425 1423 1422 1421
1452 1451 1451 1451 1450 1450 1450 1449 1449 1448 1449 1448 1448 1447 1447 1447 1446 1445 1444 1443 1442 1441 1441 1439 1436 1435 1433 1432 1431 1429 1427 1426 1424 1422 1421 1419 1418 1417
1448 1448 1448 1447 1447 1447 1446 1445 1444 1444 1444 1444 1444 1444 1443 1443 1442 1441 1441 1440 1439 1438 1437 1436 1434 1433 1430 1429 1428 1426 1424 1423 1421 1419 1417 1416 1415 1413
1445 1444 1444 1444 1444 1443 1443 1442 1441 1441 1440 1440 1440 1439 1439 1438 1438 1438 1437 1437 1436 1435 1434 1433 1432 1430 1429 1426 1424 1423 1421 1419 1417 1416 1415 1413 1412 1410
1441 1441 1441 1441 1440 1440 1439 1439 1438 1438 1437 1437 1436 1435 1435 1435 1434 1434 1434 1434 1433 1432 1431 1431 1429 1428 1427 1424 1422 1420 1419 1417 1415 1414 1412 1411 1409 1408
1439 1438 1438 1438 1437 1437 1436 1436 1435 1435 1434 1433 1433 1432 1432 1432 1431 1431 1431 1430 1429 1429 1428 1427 1426 1425 1424 1422 1420 1418 1416 1415 1413 1411 1409 1408 1406 1404
1436 1435 1435 1435 1434 1433 1433 1433 1432 1432 1431 1431 1430 1429 1429 1429 1428 1428 1427 1426 1426 1425 1425 1424 1423 1423 1421 1420 1418 1416 1414 1413 1411 1410 1408 1406 1404 1402
1433 1432 1432 1431 1431 1430 1430 1430 1429 1429 1428 1428 1427 1427 1426 1426 1425 1425 1424 1423 1422 1422 1421 1422 1421 1420 1419 1418 1416 1414 1412 1411 1409 1408 1405 1403 1402 1400
1430 1429 1429 1428 1428 1427 1427 1427 1426 1426 1425 1425 1424 1424 1423 1423 1422 1422 1421 1421 1420 1419 1419 1419 1418 1417 1416 1414 1414 1412 1410 1408 1407 1405 1403 1401 1399 1398
1428 1427 1426 1426 1425 1425 1425 1424 1423 1423 1423 1422 1422 1421 1421 1420 1420 1419 1419 1418 1418 1417 1417 1416 1415 1414 1413 1411 1411 1410 1408 1406 1404 1403 1402 1400 1397 1396
1425 1425 1424 1424 1423 1422 1422 1421 1421 1420 1420 1420 1419 1419 1418 1418 1417 1417 1417 1416 1415 1415 1414 1414 1413 1412 1411 1410 1408 1408 1407 1405 1403 1401 1399 1398 1396 1395
1423 1422 1422 1421 1420 1420 1419 1419 1418 1417 1417 1417 1416 1416 1416 1415 1415 1415 1414 1414 1413 1413 1412 1411 1411 1410 1409 1408 1407 1405 1405 1404 1401 1399 1397 1395 1393 1391
1420 1419 1419 1418 1418 1417 1416 1416 1415 1414 1414 1414 1413 1413 1413 1413 1413 1412 1412 1411 1411 1411 1410 1409 1409 1408 1407 1406 1404 1403 1401 1401 1400 1398 1397 1395 1393 1390
1417 1417 1416 1415 1415 1414 1413 1413 1412 1412 1411 1411 1411 1411 1411 1410 1410 1410 1410 1409 1409 1408 1408 1407 1406 1406 1405 1404 1403 1401 1400 1398 1397 1396 1395 1394 1393 1391